View from above orbital plane
|
View from above satellite
|
Ground track
|
The orbit data is extracted from the following two-line orbital elements,
1 23606U 95033B 21023.84393631 .00000590 00000-0 59421-4 0 9991
2 23606 98.3194 64.4267 0004036 316.1077 43.9821 14.95289069383385
Epoch (UTC): | 23 January 2021 20:15:16 |
Eccentricity: | 0.0004036 |
inclination: | 98.3194° |
perigee height: | 578 km |
apogee height: | 584 km |
right ascension of ascending node: | 64.4267° |
argument of perigee: | 316.1077° |
revolutions per day: | 14.95289069 |
mean anomaly at epoch: | 43.9821° |
orbit number at epoch: | 38338 |
The dashed part of the orbit path shows where the satellite is in the earth's shadow,
|
|